Tiempo atmosférico en la estación meteorológica de Areso, Navarra (520 m.)



Fecha
DESCASC
Temp. máxima en grados centígrados (hora)
DESCASC
Temp. mínima en grados centígrados (hora)
DESCASC
Temp. media en grados centígrados
DESCASC
Racha de viento máxima en m/sg (hora)
DESCASC
Velocidad máxima media en intervalos de 10 minutos(hora)
DESCASC
Precipitaciones diarias en mm
DESCASC
Precipitaciones de 00:00 a 06:00 en mm
DESCASC
Precipitaciones de 06:00 a 12:00 en mm
DESCASC
Precipitaciones de 12:00 a 18:00 en mm
DESCASC
Precipitaciones de 18:00 a 24:00 en mm
DESCASC
17-02-2019 16.9 (15:00) 10.5 (04:20) 13.7 18.61 (01:40) 11.11 (08:10) 0 0 0 0 0
16-02-2019 15.5 (15:10) 8.1 (05:20) 11.8 18.33 (22:00) 10.83 (22:00) 0 0 0 0 0
15-02-2019 15.9 (16:50) 9.3 (08:40) 12.6 15.28 (04:40) 9.17 (04:00) 0 0 0 0 0
14-02-2019 14.6 (16:00) 7.9 (00:00) 11.3 16.67 (15:10) 10 (09:00) 0 0 0 0 0
13-02-2019 14.2 (13:10) 1 (00:00) 7.6 12.5 (23:00) 6.11 (23:50) 0 0 0 0 0
12-02-2019 12.1 (14:30) 0.1 (00:00) 6.1 3.33 (15:10) 1.67 (15:20) 0.2 0.2 0 0 0
11-02-2019 7.1 (13:30) 4 (00:00) 5.5 7.22 (04:40) 2.22 (13:50) 12.8 4 5.2 3.6 0
10-02-2019 11.7 (00:00) 5.1 (00:00) 8.4 16.39 (06:00) 8.89 (05:50) 11.2 0 1 10 0.2
09-02-2019 14.2 (14:00) 4.1 (00:00) 9.1 10.83 (23:59) 6.67 (23:59) 0 0 0 0 0
08-02-2019 14.2 (16:00) 1.8 (00:00) 8 11.39 (14:10) 6.94 (11:20) 0 0 0 0 0
07-02-2019 8.4 (12:30) 2 (00:00) 5.2 5.28 (13:30) 1.67 (13:50) 0.8 0 0 0.8 0
06-02-2019 16.8 (16:00) 6 (00:00) 11.4 3.61 (15:50) 2.5 (14:00) 0.2 0 0.2 0 0
05-02-2019 9.4 (13:40) 4 (00:00) 6.7 0.83 (13:20) 0.28 (13:20) 7.9 4.3 0.8 1.4 1.4
04-02-2019 8.9 (14:50) -1.8 (-00:0) 3.5 1.67 (04:50) 1.11 (04:40) 3.7 0.4 0.2 0.4 2.7
03-02-2019 3.9 (14:40) 0.8 (00:00) 2.4 9.17 (01:10) 3.89 (01:20) 10.9 0.6 4.2 6 0.1
02-02-2019 4.6 (15:00) 1 (00:00) 2.8 12.78 (07:00) 4.17 (09:40) 52.6 15.8 22.4 10.8 3.6
01-02-2019 9.7 (13:10) 1.7 (00:00) 5.7 16.39 (09:40) 6.94 (07:50) 5 0.6 0 1.4 3
31-01-2019 13.6 (15:10) 3.6 (00:00) 8.6 13.33 (18:30) 5.56 (15:40) 46.8 7.6 8.6 0.6 30
30-01-2019 7.5 (16:00) 0.4 (00:00) 4 10 (23:59) 5.28 (23:50) 25.8 11.8 10.2 0 3.8
29-01-2019 7.2 (15:20) 3.5 (00:00) 5.3 12.22 (17:20) 4.44 (22:20) 16.4 6.8 1 5.6 3
28-01-2019 6.8 (08:40) 3 (00:00) 4.9 16.11 (07:20) 5 (09:00) 53.2 13 14 12.2 14
27-01-2019 7.2 (05:00) 3.2 (00:00) 5.2 12.78 (13:10) 5.28 (13:10) 18 0.8 4.4 5.4 7.4
26-01-2019 11.8 (15:40) 3.4 (00:00) 7.6 3.89 (15:10) 1.67 (13:10) 4.2 4 0.2 0 0
25-01-2019 8 (12:50) 2.4 (00:00) 5.2 8.61 (10:50) 2.5 (04:00) 55 15.4 17.8 13.6 8.2
24-01-2019 3.7 (00:10) 0.9 (00:00) 2.3 11.11 (00:50) 2.78 (00:50) 37.4 21.6 8.2 3 4.6
23-01-2019 8.1 (08:00) 2.4 (00:00) 5.3 16.94 (07:30) 5 (07:50) 86 14.8 24 23.4 23.8
22-01-2019 4.1 (12:00) 0.4 (00:00) 2.2 8.61 (12:00) 3.61 (12:00) 43.4 1.4 5 18.8 18.2
21-01-2019 4.5 (03:00) 2.1 (00:00) 3.3 5.56 (15:30) 1.67 (09:40) 19.4 8.8 4.6 3.4 2.6
20-01-2019 6.9 (15:00) 3.7 (00:00) 5.3 6.67 (20:50) 2.78 (20:50) 25.4 0.8 8.4 5 11.2
19-01-2019 7.5 (12:40) 1.7 (00:00) 4.6 9.17 (17:00) 4.44 (15:20) 2.4 2.2 0.2 0 0

Gráficas

Temp. máximas Temp. mínimas Temp. medias Precipitaciones Rachas de viento máximas Velocidades máximas media en intervalos de 10 minutos

Datos horarios

Fecha y hora oficial Temperatura (ºC) Velocidad del viento (km/h) Dirección del viento Racha (km/h) Dirección de racha Precipitación (mm) Presión (hPa) Tendencia (hPa) Humedad (%)
2019-02-17 23:00:00 11.8 15 Sur 40 Sudoeste 0 -- -- 28
2019-02-17 22:00:00 12.6 23 Sur 50 Sur 0 -- -- 24
2019-02-17 21:00:00 13.1 17 Sur 39 Sur 0 -- -- 23
2019-02-17 20:00:00 13.1 13 Sur 33 Sur 0 -- -- 24
2019-02-17 19:00:00 14.1 17 Sudoeste 35 Sudoeste 0 -- -- 21
2019-02-17 18:00:00 14.9 19 Sudoeste 45 Sudoeste 0 -- -- 21
2019-02-17 17:00:00 16.2 22 Sudoeste 55 Sur 0 -- -- 20
2019-02-17 16:00:00 16.7 21 Sur 54 Sudeste 0 -- -- 20
2019-02-17 15:00:00 16.9 18 Sur 62 Sudoeste 0 -- -- 19
2019-02-17 14:00:00 16.3 23 Sur 46 Sur 0 -- -- 19
2019-02-17 13:00:00 15.8 14 Sudeste 61 Sudoeste 0 -- -- 21
2019-02-17 12:00:00 14.2 29 Sur 61 Sur 0 -- -- 17
2019-02-17 11:00:00 12.7 31 Sur 64 Sur 0 -- -- 17
2019-02-17 10:00:00 11.7 32 Sur 66 Sur 0 -- -- 15
2019-02-17 09:00:00 10.8 33 Sur 66 Sur 0 -- -- 12
2019-02-17 08:00:00 11 35 Sur 60 Sur 0 -- -- 12
2019-02-17 07:00:00 11.4 35 Sur 64 Sur 0 -- -- 11
2019-02-17 06:00:00 10.8 30 Sur 59 Sur 0 -- -- 14
2019-02-17 05:00:00 11.2 30 Sur 61 Sur 0 -- -- 14
2019-02-17 04:00:00 10.8 12 Sur 50 Sur 0 -- -- 18
2019-02-17 03:00:00 10.7 36 Sur 55 Sudoeste 0 -- -- 22
2019-02-17 02:00:00 11.3 30 Sur 67 Sur 0 -- -- 27
2019-02-17 01:00:00 11.7 32 Sur 59 Sur 0 -- -- 27
2019-02-17 00:00:00 11.7 31 Sur 60 Sur 0 -- -- 26
2019-02-16 23:00:00 12 24 Sudoeste 63 Sur 0 -- -- 23
2019-02-16 22:00:00 12.6 39 Sur 66 Sur 0 -- -- 20
2019-02-16 21:00:00 12.8 34 Sur 62 Sudoeste 0 -- -- 22
2019-02-16 20:00:00 12.5 20 Sudoeste 35 Sudoeste 0 -- -- 24
2019-02-16 19:00:00 12.9 21 Sudoeste 38 Sudoeste 0 -- -- 26
2019-02-16 18:00:00 13.8 23 Sudoeste 50 Sudoeste 0 -- -- 26
2019-02-16 17:00:00 14.9 26 Sudoeste 52 Sudoeste 0 -- -- 30
2019-02-16 16:00:00 15.4 15 Sudoeste 41 Sudoeste 0 -- -- 31
2019-02-16 15:00:00 15.2 10 Sudeste 45 Sudoeste 0 -- -- 41
2019-02-16 14:00:00 14.6 25 Sudoeste 46 Sudoeste 0 -- -- 37
2019-02-16 13:00:00 13.7 22 Sudoeste 54 Sudoeste 0 -- -- 42
2019-02-16 12:00:00 13.1 19 Sudoeste 61 Sudoeste 0 -- -- 41
2019-02-16 11:00:00 11.6 32 Sudoeste 57 Sudoeste 0 -- -- 42
2019-02-16 10:00:00 10.6 27 Sudoeste 56 Sur 0 -- -- 43
2019-02-16 09:00:00 9.4 31 Sudoeste 55 Sudoeste 0 -- -- 50
2019-02-16 08:00:00 9.3 29 Sudoeste 50 Sudoeste 0 -- -- 52
2019-02-16 07:00:00 9.3 15 Sudoeste 35 Sudoeste 0 -- -- 51
2019-02-16 06:00:00 8.7 4 Sur 24 Sudeste 0 -- -- 57
2019-02-16 05:00:00 8.4 3 Sur 19 Sur 0 -- -- 58
2019-02-16 04:00:00 9.3 5 Sur 19 Sur 0 -- -- 53
2019-02-16 03:00:00 9.9 7 Sur 33 Sur 0 -- -- 49
2019-02-16 02:00:00 10.5 18 Sudoeste 44 Sur 0 -- -- 45
2019-02-16 01:00:00 10.8 15 Sudoeste 33 Sudoeste 0 -- -- 43
2019-02-16 00:00:00 11 11 Sudoeste 30 Sudoeste 0 -- -- 42
2019-02-15 23:00:00 11.5 14 Sudoeste 32 Oeste 0 -- -- 44
2019-02-15 22:00:00 11.8 17 Oeste 35 Oeste 0 -- -- 44
2019-02-15 21:00:00 12.3 17 Sudoeste 36 Sudoeste 0 -- -- 38
2019-02-15 20:00:00 12.2 17 Sudoeste 32 Sudoeste 0 -- -- 37
2019-02-15 19:00:00 12.5 7 Sur 20 Sur 0 -- -- 33
2019-02-15 18:00:00 13.9 2 Oeste 19 Oeste 0 -- -- 28
2019-02-15 17:00:00 15.9 10 Sudoeste 35 Sudoeste 0 -- -- 23
2019-02-15 16:00:00 15.8 18 Sur 34 Sudoeste 0 -- -- 24
2019-02-15 15:00:00 15.5 17 Sudoeste 38 Sudoeste 0 -- -- 28
2019-02-15 14:00:00 14.7 22 Sur 45 Sudoeste 0 -- -- 27
2019-02-15 13:00:00 13.6 23 Sur 44 Sur 0 -- -- 27
2019-02-15 12:00:00 12.7 23 Sur 48 Sur 0 -- -- 29
2019-02-15 11:00:00 11.6 25 Sudoeste 45 Sur 0 -- -- 33
2019-02-15 10:00:00 11 12 Oeste 31 Sudoeste 0 -- -- 34
2019-02-15 09:00:00 9.5 8 Oeste 36 Oeste 0 -- -- 33
2019-02-15 08:00:00 9.8 13 Sudoeste 43 Sudoeste 0 -- -- 28
2019-02-15 07:00:00 9.8 16 Sudoeste 44 Sudoeste 0 -- -- 31
2019-02-15 06:00:00 9.9 22 Sudoeste 55 Sudoeste 0 -- -- 34
2019-02-15 05:00:00 10.1 28 Sudoeste 55 Sudoeste 0 -- -- 36
2019-02-15 04:00:00 10.5 33 Sudoeste 54 Sudoeste 0 -- -- 37
2019-02-15 03:00:00 10.5 28 Sudoeste 53 Sudoeste 0 -- -- 39
2019-02-15 02:00:00 10.6 25 Sudoeste 50 Sur 0 -- -- 40
2019-02-15 01:00:00 10.7 27 Sudoeste 54 Sur 0 -- -- 42
2019-02-15 00:00:00 10.6 20 Sudoeste 48 Sur 0 -- -- 45
2019-02-14 23:00:00 11.1 29 Sur 54 Sur 0 -- -- 39
2019-02-14 22:00:00 10.6 15 Sudoeste 37 Sudoeste 0 -- -- 37
2019-02-14 21:00:00 10.8 10 Sur 42 Sur 0 -- -- 37
2019-02-14 20:00:00 11.4 8 Sudoeste 29 Sur 0 -- -- 35
2019-02-14 19:00:00 12 6 Sudoeste 30 Sudeste 0 -- -- 34
2019-02-14 18:00:00 12.9 9 Sudoeste 36 Sudoeste 0 -- -- 34
2019-02-14 17:00:00 14.4 16 Sudoeste 47 Sudoeste 0 -- -- 37
2019-02-14 16:00:00 14.6 19 Sudoeste 60 Sur 0 -- -- 34
2019-02-14 15:00:00 13.9 26 Sudoeste 57 Sur 0 -- -- 37
2019-02-14 14:00:00 13 19 Sur 53 Sudoeste 0 -- -- 45
2019-02-14 13:00:00 11.5 27 Sudoeste 57 Sudoeste 0 -- -- 51
2019-02-14 12:00:00 11.1 27 Sudoeste 53 Sudoeste 0 -- -- 47
2019-02-14 11:00:00 10.2 26 Sur 56 Sudoeste 0 -- -- 50
2019-02-14 10:00:00 9.2 28 Sudoeste 53 Sudoeste 0 -- -- 55
2019-02-14 09:00:00 8.1 36 Sur 57 Sur 0 -- -- 60
2019-02-14 08:00:00 8.3 36 Sur 57 Sur 0 -- -- 61
2019-02-14 07:00:00 8.3 12 Sudoeste 40 Sudoeste 0 -- -- 61
2019-02-14 06:00:00 9.2 15 Sudoeste 44 Sur 0 -- -- 54
2019-02-14 05:00:00 9.6 18 Sudoeste 44 Sudoeste 0 -- -- 48
2019-02-14 04:00:00 10 24 Sudoeste 48 Sur 0 -- -- 50
2019-02-14 03:00:00 10 27 Sudoeste 46 Sudoeste 0 -- -- 55
2019-02-14 02:00:00 10.3 21 Sudoeste 44 Sudoeste 0 -- -- 50
2019-02-14 01:00:00 10.7 21 Sudoeste 49 Sudoeste 0 -- -- 43
2019-02-14 00:00:00 11 21 Sudoeste 39 Sudoeste 0 -- -- 48
2019-02-13 23:00:00 11.3 21 Sudoeste 45 Sur 0 -- -- 49
2019-02-13 22:00:00 11.2 15 Sudoeste 37 Sudoeste 0 -- -- 52
2019-02-13 21:00:00 11 9 Sudoeste 27 Sudoeste 0 -- -- 55
2019-02-13 20:00:00 11.4 13 Oeste 33 Sudoeste 0 -- -- 55
2019-02-13 19:00:00 11.6 14 Sudoeste 31 Sur 0 -- -- 56
2019-02-13 18:00:00 12.5 15 Sudoeste 36 Sur 0 -- -- 50
2019-02-13 17:00:00 13.8 13 Sudoeste 37 Sur 0 -- -- 48
2019-02-13 16:00:00 14.1 13 Sur 36 Sudoeste 0 -- -- 48
2019-02-13 15:00:00 13.7 14 Sudoeste 33 Sur 0 -- -- 50
2019-02-13 14:00:00 13.6 14 Sur 31 Sur 0 -- -- 49
2019-02-13 13:00:00 13.7 5 Sur 23 Sudoeste 0 -- -- 51
2019-02-13 12:00:00 -- 8 Sudoeste 23 Sur 0 -- -- --
2019-02-13 11:00:00 11.2 6 Sudoeste 25 Sudoeste 0 -- -- 55
2019-02-13 10:00:00 7.2 4 Sur 12 Noroeste 0 -- -- 73
2019-02-13 09:00:00 4.1 0 Calma 10 Oeste 0 -- -- 82
2019-02-13 08:00:00 4.1 4 Sudoeste 18 Noroeste 0 -- -- 81
2019-02-13 07:00:00 2.7 0 Calma 6 Sudeste 0 -- -- 94
2019-02-13 06:00:00 1.7 0 Calma 5 Noroeste 0 -- -- 100
2019-02-13 05:00:00 1.3 0 Calma 4 Sudeste 0 -- -- 100
2019-02-13 04:00:00 1.3 0 Calma 3 Nordeste 0 -- -- 100
2019-02-13 03:00:00 1.3 0 Calma 0 Calma 0 -- -- 100
2019-02-13 02:00:00 1.4 0 Calma 2 Sudoeste 0 -- -- 100
2019-02-13 01:00:00 2 0 Calma 0 Calma 0 -- -- 100
2019-02-13 00:00:00 2.4 0 Calma 2 Nordeste 0 -- -- 100
2019-02-12 23:00:00 2.6 0 Calma 2 Sudeste 0 -- -- 98
2019-02-12 22:00:00 3.1 0 Calma 2 Sudeste 0 -- -- 96
2019-02-12 21:00:00 4.1 0 Calma 4 Sudoeste 0 -- -- 94
2019-02-12 20:00:00 5.2 0 Calma 2 Sudeste 0 -- -- 93
2019-02-12 19:00:00 6.2 0 Calma 6 Nordeste 0 -- -- 88
2019-02-12 18:00:00 9 0 Calma 10 Norte 0 -- -- 76
2019-02-12 17:00:00 11.2 4 Norte 12 Noroeste 0 -- -- 68
2019-02-12 16:00:00 11.8 4 Norte 12 Nordeste 0 -- -- 63
2019-02-12 15:00:00 11.8 4 Norte 10 Nordeste 0 -- -- 64
2019-02-12 14:00:00 11.2 3 Este 12 Este 0 -- -- 57
2019-02-12 13:00:00 10 4 Este 10 Este 0 -- -- 66
2019-02-12 12:00:00 9 4 Sur 9 Sur 0 -- -- 71
2019-02-12 11:00:00 6.4 4 Este 9 Este 0 -- -- 84
2019-02-12 10:00:00 2.4 0 Calma 2 Norte 0 -- -- 100
2019-02-12 09:00:00 0.3 0 Calma 4 Norte 0 -- -- 100
2019-02-12 08:00:00 0.5 0 Calma 2 Norte 0 -- -- 100
2019-02-12 07:00:00 0.8 0 Calma 3 Sur 0 -- -- 100
2019-02-12 06:00:00 1.4 0 Calma 3 Norte 0 -- -- 100
2019-02-12 05:00:00 2.4 0 Calma 3 Nordeste 0 -- -- 100
2019-02-12 04:00:00 3.4 0 Calma 4 Noroeste 0 -- -- 100
2019-02-12 03:00:00 4.1 0 Calma 3 Sur 0 -- -- 100
2019-02-12 02:00:00 4.2 0 Calma 2 Oeste 0.2 -- -- 100
2019-02-12 01:00:00 3.9 0 Calma 2 Sudeste 0 -- -- 100
2019-02-12 00:00:00 4 0 Calma 2 Sudeste 0 -- -- 99
2019-02-11 23:00:00 4.4 0 Calma 3 Oeste 0 -- -- 98
2019-02-11 22:00:00 5.2 0 Calma 10 Sudoeste 0 -- -- 97
2019-02-11 21:00:00 5.3 3 Este 10 Este 0 -- -- 99
2019-02-11 20:00:00 5.3 0 Calma 6 Sudeste 0 -- -- 98
2019-02-11 19:00:00 5.4 2 Sudeste 14 Este 0 -- -- 96
2019-02-11 18:00:00 6.1 3 Sudeste 6 Sudeste 0 -- -- 94
2019-02-11 17:00:00 6.6 3 Este 9 Oeste 0 -- -- 94
2019-02-11 16:00:00 6.9 4 Sudeste 12 Sudeste 0 -- -- 92
2019-02-11 15:00:00 5.7 4 Sur 16 Este 2.2 -- -- 96
2019-02-11 14:00:00 6.6 6 Sudeste 17 Oeste 0.6 -- -- 90
2019-02-11 13:00:00 6.5 4 Sur 14 Sudeste 0.8 -- -- 96
2019-02-11 12:00:00 5.8 4 Este 17 Este 0.8 -- -- 100
2019-02-11 11:00:00 5.2 3 Sudoeste 10 Sudoeste 1.4 -- -- 100
2019-02-11 10:00:00 5 0 Calma 11 Este 1.6 -- -- 99
2019-02-11 09:00:00 5.1 2 Sudeste 16 Oeste 0.2 -- -- 98
2019-02-11 08:00:00 5 4 Sudeste 13 Noroeste 0.6 -- -- 96
2019-02-11 07:00:00 5.2 5 Sudoeste 14 Sur 0.6 -- -- 95
2019-02-11 06:00:00 5.1 4 Este 20 Sudeste 1 -- -- 95
2019-02-11 05:00:00 5.2 3 Sudeste 26 Oeste 0.2 -- -- 94
2019-02-11 04:00:00 5.4 6 Sur 24 Oeste 1 -- -- 93
2019-02-11 03:00:00 5.3 6 Sudoeste 17 Sur 0.4 -- -- 94
2019-02-11 02:00:00 5.2 4 Sur 19 Noroeste 1.4 -- -- 91
2019-02-11 01:00:00 5.5 4 Oeste 14 Oeste 0 -- -- 86
2019-02-11 00:00:00 5.2 3 Oeste 14 Noroeste 0 -- -- 87
2019-02-10 23:00:00 5.3 3 Sur 10 Sur 0 -- -- 94
2019-02-10 22:00:00 5.7 0 Calma 22 Oeste 0.2 -- -- 94
2019-02-10 21:00:00 6.2 5 Sur 12 Sur 0 -- -- 84
2019-02-10 20:00:00 6.1 4 Sudoeste 19 Oeste 0 -- -- 87
2019-02-10 19:00:00 5.8 3 Oeste 19 Noroeste 0 -- -- 92
2019-02-10 18:00:00 6 3 Este 15 Este 0.6 -- -- 92
2019-02-10 17:00:00 6.5 2 Sudeste 18 Noroeste 1 -- -- 95
2019-02-10 16:00:00 6.3 5 Sudeste 19 Este 1.8 -- -- 97
2019-02-10 15:00:00 7.8 4 Norte 17 Nordeste 2.2 -- -- 92
2019-02-10 14:00:00 7.9 3 Nordeste 21 Noroeste 2 -- -- 95
2019-02-10 13:00:00 8 3 Noroeste 15 Oeste 2.4 -- -- 93
2019-02-10 12:00:00 9 9 Noroeste 33 Oeste 0.2 -- -- 90
2019-02-10 11:00:00 11.6 14 Sudoeste 30 Sur 0 -- -- 67
2019-02-10 10:00:00 11.3 13 Oeste 40 Sur 0 -- -- 67
2019-02-10 09:00:00 9.8 22 Sudoeste 44 Sudoeste 0.4 -- -- 76
2019-02-10 08:00:00 9.9 17 Sudoeste 36 Sur 0.4 -- -- 75
2019-02-10 07:00:00 11.2 18 Sudoeste 47 Sudoeste 0 -- -- 61
2019-02-10 06:00:00 11.6 28 Sudoeste 59 Sudoeste 0 -- -- 55
2019-02-10 05:00:00 10.9 26 Sudoeste 44 Sur 0 -- -- 58
2019-02-10 04:00:00 10.6 21 Sudoeste 57 Oeste 0 -- -- 58
2019-02-10 03:00:00 10.6 19 Sudoeste 44 Sudoeste 0 -- -- 57
2019-02-10 02:00:00 10.5 18 Sudoeste 43 Sur 0 -- -- 61
2019-02-10 01:00:00 11.1 20 Sudoeste 36 Sudoeste 0 -- -- 61
2019-02-10 00:00:00 11.7 24 Sudoeste 39 Sudoeste 0 -- -- 57
2019-02-09 23:00:00 11.4 18 Sudoeste 37 Sudoeste 0 -- -- 60
2019-02-09 22:00:00 11.7 17 Sudoeste 31 Sudoeste 0 -- -- 61
2019-02-09 21:00:00 11.5 17 Sudoeste 35 Sur 0 -- -- 63
2019-02-09 20:00:00 11.4 14 Sur 26 Sur 0 -- -- 63
2019-02-09 19:00:00 11.7 17 Sur 36 Sur 0 -- -- 62
2019-02-09 18:00:00 11.7 10 Sur 37 Sudoeste 0 -- -- 66
2019-02-09 17:00:00 13 10 Sur 31 Sudoeste 0 -- -- 58
2019-02-09 16:00:00 13.9 9 Sur 31 Sudeste 0 -- -- 57
2019-02-09 15:00:00 13.5 8 Sur 26 Sudoeste 0 -- -- 62
2019-02-09 14:00:00 14.2 9 Sur 27 Sudoeste 0 -- -- 59
2019-02-09 13:00:00 14 9 Sur 20 Sur 0 -- -- 57
2019-02-09 12:00:00 12.5 6 Sur 13 Sudoeste 0 -- -- 65
2019-02-09 11:00:00 10.4 5 Oeste 17 Oeste 0 -- -- 68
2019-02-09 10:00:00 7.5 4 Oeste 11 Sudoeste 0 -- -- 82
2019-02-09 09:00:00 4.4 0 Calma 2 Oeste 0 -- -- 92
2019-02-09 08:00:00 4.5 0 Calma 3 Oeste 0 -- -- 90
2019-02-09 07:00:00 4.9 0 Calma 2 Noroeste 0 -- -- 88
2019-02-09 06:00:00 5.7 0 Calma 3 Noroeste 0 -- -- 85
2019-02-09 05:00:00 6.2 2 Noroeste 5 Noroeste 0 -- -- 84
2019-02-09 04:00:00 6.4 0 Calma 2 Oeste 0 -- -- 83
2019-02-09 03:00:00 6.7 0 Calma 4 Noroeste 0 -- -- 79
2019-02-09 02:00:00 7.8 0 Calma 8 Sudoeste 0 -- -- 74
2019-02-09 01:00:00 9 6 Oeste 12 Oeste 0 -- -- 66
2019-02-09 00:00:00 10 4 Oeste 19 Sudoeste 0 -- -- 60
2019-02-08 23:00:00 10.7 14 Sudoeste 26 Sudoeste 0 -- -- 57
2019-02-08 22:00:00 9.8 8 Sudoeste 17 Sudoeste 0 -- -- 64
2019-02-08 21:00:00 8.1 0 Calma 8 Noroeste 0 -- -- 75
2019-02-08 20:00:00 9.4 4 Oeste 9 Oeste 0 -- -- 67
2019-02-08 19:00:00 10.5 0 Calma 9 Sudoeste 0 -- -- 62
2019-02-08 18:00:00 11.5 0 Calma 18 Oeste 0 -- -- 64
2019-02-08 17:00:00 14.1 9 Sur 25 Sur 0 -- -- 55
2019-02-08 16:00:00 14.2 7 Sur 31 Sudoeste 0 -- -- 54
2019-02-08 15:00:00 13.7 17 Sur 41 Sur 0 -- -- 51
2019-02-08 14:00:00 12.7 17 Sur 36 Sur 0 -- -- 57
2019-02-08 13:00:00 11.6 15 Sur 32 Sur 0 -- -- 62
2019-02-08 12:00:00 10.5 18 Sur 37 Sudoeste 0 -- -- 63
2019-02-08 11:00:00 10.6 13 Sudoeste 26 Sur 0 -- -- 62
2019-02-08 10:00:00 9 10 Sudoeste 23 Sur 0 -- -- 69
2019-02-08 09:00:00 6.9 9 Sudoeste 15 Noroeste 0 -- -- 78
2019-02-08 08:00:00 5.7 4 Oeste 13 Oeste 0 -- -- 84
2019-02-08 07:00:00 5.4 5 Oeste 11 Oeste 0 -- -- 87
2019-02-08 06:00:00 4.3 0 Calma 5 Noroeste 0 -- -- 92
2019-02-08 05:00:00 3.3 0 Calma 4 Oeste 0 -- -- 100
2019-02-08 04:00:00 2.5 0 Calma 3 Este 0 -- -- 100
2019-02-08 03:00:00 2.2 0 Calma 2 Oeste 0 -- -- 100
2019-02-08 02:00:00 2 0 Calma 2 Este 0 -- -- 100
2019-02-08 01:00:00 1.9 0 Calma 2 Nordeste 0 -- -- 100
2019-02-08 00:00:00 2 0 Calma -- -- 0 -- -- 100
2019-02-07 23:00:00 2.5 0 Calma 0 Calma 0 -- -- 99
2019-02-07 22:00:00 3.3 0 Calma 2 Noroeste 0 -- -- 98
2019-02-07 21:00:00 4.3 0 Calma 4 Noroeste 0 -- -- 96
2019-02-07 20:00:00 5.8 0 Calma 2 Norte 0 -- -- 94
2019-02-07 19:00:00 6.4 0 Calma 3 Noroeste 0 -- -- 92
2019-02-07 18:00:00 7 0 Calma 3 Este 0 -- -- 90
2019-02-07 17:00:00 7.2 0 Calma 13 Sudoeste 0 -- -- 84
2019-02-07 16:00:00 7.3 3 Este 8 Nordeste 0 -- -- 93
2019-02-07 15:00:00 6.9 2 Este 14 Nordeste 0 -- -- 98
2019-02-07 14:00:00 7 3 Sudeste 19 Sudoeste 0.6 -- -- 95
2019-02-07 13:00:00 8.1 0 Calma 7 Nordeste 0.2 -- -- 94
2019-02-07 12:00:00 8.1 0 Calma 4 Sur 0 -- -- 93
2019-02-07 11:00:00 6.8 0 Calma 3 Este 0 -- -- 100
2019-02-07 10:00:00 5.9 0 Calma 2 Nordeste 0 -- -- 100
2019-02-07 09:00:00 5.5 0 Calma 2 Nordeste 0 -- -- 100
2019-02-07 08:00:00 5.1 0 Calma 2 Nordeste 0 -- -- 100
2019-02-07 07:00:00 4.9 0 Calma 0 Calma 0 -- -- 100
2019-02-07 06:00:00 5.3 0 Calma 2 Nordeste 0 -- -- 99
2019-02-07 05:00:00 5 0 Calma 2 Este 0 -- -- 98
2019-02-07 04:00:00 5.9 0 Calma 3 Noroeste 0 -- -- 97
2019-02-07 03:00:00 6.2 0 Calma 2 Noroeste 0 -- -- 95
2019-02-07 02:00:00 5.8 0 Calma 3 Norte 0 -- -- 94
2019-02-07 01:00:00 6 0 Calma 2 Oeste 0 -- -- 92
2019-02-07 00:00:00 6.2 0 Calma 2 Sudeste 0 -- -- 89
2019-02-06 23:00:00 6.5 0 Calma 3 Norte 0 -- -- 88
2019-02-06 22:00:00 7.3 0 Calma 4 Nordeste 0 -- -- 86
2019-02-06 21:00:00 8 0 Calma 4 Oeste 0 -- -- 84
2019-02-06 20:00:00 9.3 0 Calma 4 Este 0 -- -- 78
2019-02-06 19:00:00 11 0 Calma 6 Sur 0 -- -- 77
2019-02-06 18:00:00 14.1 3 Oeste 10 Sudoeste 0 -- -- 68
2019-02-06 17:00:00 15.5 0 Calma 11 Sudoeste 0 -- -- 68
2019-02-06 16:00:00 16.8 6 Sudoeste 13 Sudoeste 0 -- -- 57
2019-02-06 15:00:00 16.4 6 Sudoeste 12 Sudoeste 0 -- -- 63
2019-02-06 14:00:00 16.3 9 Sudoeste 12 Sur 0 -- -- 59
2019-02-06 13:00:00 14.5 3 Sudoeste 6 Sur 0 -- -- 74
2019-02-06 12:00:00 11.8 3 Sudoeste 5 Sudoeste 0 -- -- 90
2019-02-06 11:00:00 8.9 0 Calma 5 Sur 0 -- -- 100
2019-02-06 10:00:00 6.4 2 Sudoeste 6 Sudoeste 0.2 -- -- 100
2019-02-06 09:00:00 6.1 2 Sudoeste 5 Noroeste 0 -- -- 100
2019-02-06 08:00:00 6 0 Calma 4 Noroeste 0 -- -- 100
2019-02-06 07:00:00 6.3 0 Calma 0 Calma 0 -- -- 100
2019-02-06 06:00:00 6.4 0 Calma 0 Calma 0 -- -- 100
2019-02-06 05:00:00 6.3 0 Calma 2 Nordeste 0 -- -- 100
2019-02-06 04:00:00 6.3 0 Calma 2 Noroeste 0 -- -- 100
2019-02-06 03:00:00 6.4 0 Calma 0 Calma 0 -- -- 100
2019-02-06 02:00:00 6.4 0 Calma -- -- 0 -- -- 100
2019-02-06 01:00:00 6.4 0 Calma 0 Calma 0 -- -- 100
2019-02-06 00:00:00 6.6 0 Calma 2 Noroeste 0 -- -- 100
2019-02-05 23:00:00 6.6 0 Calma 2 Noroeste 0 -- -- 100
2019-02-05 22:00:00 6.7 0 Calma 0 Calma 0.2 -- -- 100
2019-02-05 21:00:00 7.1 0 Calma 0 Calma 0 -- -- 100
2019-02-05 20:00:00 7.4 0 Calma 2 Noroeste 0.2 -- -- 100
2019-02-05 19:00:00 7.8 0 Calma -- -- 1 -- -- 100
2019-02-05 18:00:00 8.3 0 Calma 2 Noroeste 0.4 -- -- 100
2019-02-05 17:00:00 8.8 0 Calma 3 Sudoeste 0.2 -- -- 100
2019-02-05 16:00:00 9.3 0 Calma 3 Sudoeste 0 -- -- 100
2019-02-05 15:00:00 9.4 0 Calma 3 Sudeste 0.6 -- -- 100
2019-02-05 14:00:00 9.4 0 Calma 3 Sur 0 -- -- 100
2019-02-05 13:00:00 9.1 0 Calma 3 Sur 0.2 -- -- 100
2019-02-05 12:00:00 7.5 0 Calma 2 Sudoeste 0 -- -- 100
2019-02-05 11:00:00 6.4 0 Calma 0 Calma 0.4 -- -- 100
2019-02-05 10:00:00 5.9 0 Calma 0 Calma 0.4 -- -- 100
2019-02-05 09:00:00 5.8 0 Calma 2 Oeste 0 -- -- 100
2019-02-05 08:00:00 5.5 0 Calma 2 Oeste 0 -- -- 100
2019-02-05 07:00:00 5.4 0 Calma 2 Sudoeste 0 -- -- 100
2019-02-05 06:00:00 5.4 0 Calma 3 Oeste 0.2 -- -- 100
2019-02-05 05:00:00 4.9 0 Calma 2 Sudoeste 0.6 -- -- 100
2019-02-05 04:00:00 4.7 0 Calma 2 Noroeste 1 -- -- 100
2019-02-05 03:00:00 4.4 0 Calma 2 Sudeste 1.2 -- -- 100
2019-02-05 02:00:00 4.4 0 Calma 3 Noroeste 0.6 -- -- 100
2019-02-05 01:00:00 4.1 0 Calma 3 Noroeste 0.8 -- -- 100
2019-02-05 00:00:00 4.1 0 Calma 0 Calma 0.6 -- -- 100
2019-02-04 23:00:00 3.9 0 Calma 3 Noroeste 0.4 -- -- 100
2019-02-04 22:00:00 3.7 0 Calma 2 Este 0.4 -- -- 100
2019-02-04 21:00:00 3.8 0 Calma 2 Noroeste 0.8 -- -- 100
2019-02-04 20:00:00 4 0 Calma 2 Este 0.2 -- -- 100
2019-02-04 19:00:00 4.3 0 Calma 2 Noroeste 0.6 -- -- 97
2019-02-04 18:00:00 5.2 0 Calma 2 Sudoeste 0.4 -- -- 93
2019-02-04 17:00:00 6.4 0 Calma 2 Nordeste 0 -- -- 83
2019-02-04 16:00:00 7.9 0 Calma 4 Sudoeste 0 -- -- 64
2019-02-04 15:00:00 8.9 0 Calma 2 Nordeste 0 -- -- 66
2019-02-04 14:00:00 8.2 0 Calma 4 Sudoeste 0 -- -- 76
2019-02-04 13:00:00 6.8 0 Calma 2 Sudoeste 0 -- -- 86
2019-02-04 12:00:00 5.2 0 Calma 4 Sudoeste 0 -- -- 92
2019-02-04 11:00:00 2.7 0 Calma 2 Sudoeste 0 -- -- 100
2019-02-04 10:00:00 0.3 0 Calma 0 Calma 0.2 -- -- 100
2019-02-04 09:00:00 -1.1 0 Calma 3 Noroeste 0 -- -- 100
2019-02-04 08:00:00 -1.7 0 Calma 2 Noroeste 0 -- -- 100
2019-02-04 07:00:00 -1.2 0 Calma 3 Noroeste 0 -- -- 100
2019-02-04 06:00:00 -0.7 0 Calma 2 Noroeste 0 -- -- 100
2019-02-04 05:00:00 -0.3 0 Calma 6 Oeste 0 -- -- 100
2019-02-04 04:00:00 -0.1 0 Calma 4 Noroeste 0 -- -- 100
2019-02-04 03:00:00 0.2 0 Calma 2 Noroeste 0 -- -- 100
2019-02-04 02:00:00 1.1 0 Calma 2 Oeste 0 -- -- 100
2019-02-04 01:00:00 1.3 0 Calma 3 Sur 0.4 -- -- 100
2019-02-04 00:00:00 1.2 0 Calma 3 Noroeste 0.2 -- -- 100
2019-02-03 23:00:00 1.2 0 Calma 3 Noroeste 0 -- -- 100
2019-02-03 22:00:00 1.1 0 Calma 3 Norte 0 -- -- 100
2019-02-03 21:00:00 1 0 Calma 3 Sur 0 -- -- 100
2019-02-03 20:00:00 1 0 Calma 2 Norte 0 -- -- 99
2019-02-03 19:00:00 1.7 0 Calma 4 Noroeste 0 -- -- 97
2019-02-03 18:00:00 2.3 0 Calma 11 Nordeste 0.2 -- -- 93
2019-02-03 17:00:00 2.9 3 Sur 10 Nordeste 0 -- -- 92
2019-02-03 16:00:00 3.2 5 Sur 14 Oeste 0.4 -- -- 87
2019-02-03 15:00:00 3.3 3 Sur 27 Este 1.4 -- -- 89
2019-02-03 14:00:00 2.3 5 Este 22 Este 2 -- -- 98
2019-02-03 13:00:00 2.3 3 Este 26 Este 2 -- -- 96
2019-02-03 12:00:00 1.2 10 Este 27 Nordeste 1.2 -- -- 97
2019-02-03 11:00:00 2.1 5 Este 21 Este 1.4 -- -- 88
2019-02-03 10:00:00 1.7 3 Nordeste 19 Nordeste 1 -- -- 92
2019-02-03 09:00:00 1.4 5 Este 23 Nordeste 0.4 -- -- 96
2019-02-03 08:00:00 1.3 5 Nordeste 26 Nordeste 0 -- -- 95
2019-02-03 07:00:00 1.7 6 Nordeste 17 Nordeste 0.2 -- -- 92
2019-02-03 06:00:00 1.3 4 Este 21 Sur 0 -- -- 93
2019-02-03 05:00:00 1.7 4 Este 19 Este 0 -- -- 87
2019-02-03 04:00:00 1.3 4 Nordeste 18 Nordeste 0 -- -- 91
2019-02-03 03:00:00 0.8 3 Sudeste 21 Este 0 -- -- 96
2019-02-03 02:00:00 2.1 8 Nordeste 33 Este 0.2 -- -- 84
2019-02-03 01:00:00 3 6 Este 30 Oeste 0.4 -- -- 77
2019-02-03 00:00:00 2.2 10 Nordeste 35 Nordeste 0.4 -- -- 86
2019-02-02 23:00:00 1.8 8 Este 19 Este 0.4 -- -- 93
2019-02-02 22:00:00 2 8 Este 40 Este 0.6 -- -- 88
2019-02-02 21:00:00 2.2 7 Este 31 Norte 0.2 -- -- 89
2019-02-02 20:00:00 1.8 7 Sur 24 Noroeste 0.8 -- -- 90
2019-02-02 19:00:00 1.5 5 Sudeste 43 Norte 1.2 -- -- 92
2019-02-02 18:00:00 2.5 6 Sudeste 42 Este 0.4 -- -- 83
2019-02-02 17:00:00 3.8 4 Sudeste 37 Nordeste 0.8 -- -- 74
2019-02-02 16:00:00 4.3 10 Sudeste 31 Este 1.8 -- -- 68
2019-02-02 15:00:00 4.6 8 Sur 31 Oeste 2.6 -- -- 69
2019-02-02 14:00:00 3.1 7 Sur 35 Este 1.8 -- -- 81
2019-02-02 13:00:00 3.6 11 Sur 35 Sudoeste 3.4 -- -- 81
2019-02-02 12:00:00 1.8 7 Sur 40 Sudeste 3.8 -- -- 95
2019-02-02 11:00:00 1.7 10 Sudoeste 40 Oeste 1 -- -- 96
2019-02-02 10:00:00 2.9 11 Sudoeste 41 Norte 2 -- -- 92
2019-02-02 09:00:00 2.8 12 Sudoeste 35 Sur 4.4 -- -- 95
2019-02-02 08:00:00 3.2 7 Este 34 Noroeste 6.6 -- -- 96
2019-02-02 07:00:00 3.5 14 Sudoeste 46 Noroeste 4.6 -- -- 99
2019-02-02 06:00:00 1.2 4 Sur 14 Oeste 5 -- -- 97
2019-02-02 05:00:00 2.7 3 Sudoeste 22 Sudoeste 3 -- -- 96
2019-02-02 04:00:00 2.9 2 Noroeste 19 Sudoeste 4 -- -- 96
2019-02-02 03:00:00 2.9 3 Oeste 26 Sur 1.4 -- -- 94
2019-02-02 02:00:00 3.3 5 Sur 26 Sur 1.8 -- -- 94
2019-02-02 01:00:00 3.5 6 Oeste 21 Sudoeste 0.6 -- -- 89
2019-02-02 00:00:00 3.3 9 Sudoeste 18 Oeste 0 -- -- 97
2019-02-01 23:00:00 2.3 0 Calma 3 Noroeste 0 -- -- 100
2019-02-01 22:00:00 2 0 Calma 4 Sur 0 -- -- 100
2019-02-01 21:00:00 1.8 0 Calma 4 Noroeste 0 -- -- 100
2019-02-01 20:00:00 2.3 0 Calma 8 Oeste 0.6 -- -- 97
2019-02-01 19:00:00 2.9 5 Norte 40 Noroeste 2.4 -- -- 93
2019-02-01 18:00:00 6.3 7 Sudoeste 45 Oeste 0.2 -- -- 72
2019-02-01 17:00:00 6.3 17 Sudoeste 44 Oeste 1 -- -- 71
2019-02-01 16:00:00 7.8 9 Sudoeste 32 Sudoeste 0.2 -- -- 71
2019-02-01 15:00:00 9.5 18 Oeste 42 Sudoeste 0 -- -- 52
2019-02-01 14:00:00 9.2 15 Oeste 40 Sudoeste 0 -- -- 54
2019-02-01 13:00:00 9.6 23 Oeste 49 Sudoeste 0 -- -- 52
2019-02-01 12:00:00 8.8 24 Oeste 51 Noroeste 0 -- -- 57
2019-02-01 11:00:00 8.8 17 Oeste 43 Sudoeste 0 -- -- 55
2019-02-01 10:00:00 8 15 Sudoeste 59 Oeste 0 -- -- 59
2019-02-01 09:00:00 8.1 18 Sudoeste 42 Oeste 0 -- -- 61
2019-02-01 08:00:00 8.3 15 Oeste 45 Oeste 0 -- -- 67
2019-02-01 07:00:00 6.5 9 Oeste 21 Noroeste 0 -- -- 76
2019-02-01 06:00:00 4.2 4 Este 15 Oeste 0.2 -- -- 100
2019-02-01 05:00:00 4.7 2 Noroeste 5 Oeste 0 -- -- 100
2019-02-01 04:00:00 5.5 0 Calma 5 Noroeste 0 -- -- 100
2019-02-01 03:00:00 6.5 2 Norte 6 Norte 0 -- -- 100
2019-02-01 02:00:00 6.6 0 Calma 3 Noroeste 0.4 -- -- 100
2019-02-01 01:00:00 6.7 0 Calma 10 Noroeste 0 -- -- 100
2019-02-01 00:00:00 7 0 Calma 9 Noroeste 3.4 -- -- 100
2019-01-31 23:00:00 7.4 2 Nordeste 6 Sudeste 5.4 -- -- 100
2019-01-31 22:00:00 7.7 0 Calma 2 Sudeste 5.6 -- -- 100
2019-01-31 21:00:00 8.1 0 Calma 7 Este 6 -- -- 99
2019-01-31 20:00:00 8.7 0 Calma 22 Este 9.6 -- -- 96
2019-01-31 19:00:00 13.6 9 Sudoeste 48 Oeste 0 -- -- 71
2019-01-31 18:00:00 12.4 16 Sudoeste 38 Sur 0 -- -- 76
2019-01-31 17:00:00 11.3 6 Sudoeste 27 Oeste 0.6 -- -- 84
2019-01-31 16:00:00 13.1 13 Sudoeste 39 Sudoeste 0 -- -- 74
2019-01-31 15:00:00 13.5 16 Sudoeste 41 Sur 0 -- -- 73
2019-01-31 14:00:00 12.3 9 Sudoeste 36 Oeste 0 -- -- 79
2019-01-31 13:00:00 10.7 12 Sudoeste 24 Sudoeste 0 -- -- 85
2019-01-31 12:00:00 9.1 10 Sudoeste 18 Sudoeste 0 -- -- 90
2019-01-31 11:00:00 7.4 5 Sudoeste 15 Oeste 0.6 -- -- 95
2019-01-31 10:00:00 6.1 5 Sudoeste 13 Oeste 1.2 -- -- 96
2019-01-31 09:00:00 5.7 4 Oeste 13 Oeste 2.6 -- -- 95
2019-01-31 08:00:00 5.7 8 Oeste 14 Oeste 2.2 -- -- 94
2019-01-31 07:00:00 5.2 6 Oeste 17 Oeste 2 -- -- 95
2019-01-31 06:00:00 5.1 10 Oeste 28 Sudoeste 1 -- -- 93
2019-01-31 05:00:00 4.7 13 Oeste 22 Sudoeste 1 -- -- 92
2019-01-31 04:00:00 4.2 10 Oeste 33 Sudoeste 1.6 -- -- 93
2019-01-31 03:00:00 4 16 Sudoeste 33 Oeste 1.4 -- -- 91
2019-01-31 02:00:00 3.8 11 Sudoeste 30 Sudoeste 1.2 -- -- 91
2019-01-31 01:00:00 3.7 11 Sudoeste 30 Sudoeste 1.4 -- -- 91
2019-01-31 00:00:00 4.1 17 Sudoeste 36 Oeste 1.4 -- -- 89
2019-01-30 23:00:00 4.7 14 Sudoeste 28 Sudoeste 1.4 -- -- 89
2019-01-30 22:00:00 5.7 2 Sudoeste 19 Sudoeste 1 -- -- 87
2019-01-30 21:00:00 6.7 10 Sudoeste 20 Sudoeste 0 -- -- 77
2019-01-30 20:00:00 6.4 5 Sudoeste 13 Sudoeste 0 -- -- 68
2019-01-30 19:00:00 5.6 3 Sudoeste 8 Sudoeste 0 -- -- 69
2019-01-30 18:00:00 5.6 0 Calma 6 Sudoeste 0 -- -- 71
2019-01-30 17:00:00 6.7 3 Sudoeste 14 Oeste 0 -- -- 62
2019-01-30 16:00:00 7.5 3 Sudoeste 8 Oeste 0 -- -- 61
2019-01-30 15:00:00 6.9 2 Oeste 19 Sudoeste 0 -- -- 67
2019-01-30 14:00:00 7 7 Sudoeste 25 Sudoeste 0 -- -- 71
2019-01-30 13:00:00 6.2 4 Sudoeste 26 Oeste 0 -- -- 83
2019-01-30 12:00:00 3.6 6 Oeste 19 Sudoeste 0.2 -- -- 94
2019-01-30 11:00:00 0.8 0 Calma 3 Noroeste 3.2 -- -- 100
2019-01-30 10:00:00 1 2 Nordeste 5 Noroeste 1.4 -- -- 100
2019-01-30 09:00:00 0.8 0 Calma 5 Sudoeste 1 -- -- 100
2019-01-30 08:00:00 1 0 Calma 6 Sur 2.4 -- -- 99
2019-01-30 07:00:00 1.8 2 Norte 20 Sudoeste 2 -- -- 97
2019-01-30 06:00:00 2.6 10 Sudoeste 23 Oeste 1.6 -- -- 96
2019-01-30 05:00:00 2.5 3 Sudoeste 17 Sudoeste 1.8 -- -- 97
2019-01-30 04:00:00 2.6 6 Norte 16 Oeste 2.2 -- -- 96
2019-01-30 03:00:00 3 5 Oeste 27 Oeste 2.4 -- -- 95
2019-01-30 02:00:00 3.3 8 Oeste 28 Sudoeste 2.4 -- -- 92
2019-01-30 01:00:00 3.5 5 Sudoeste 30 Noroeste 1.4 -- -- 90
2019-01-30 00:00:00 3.5 10 Oeste 32 Sur 0.6 -- -- 89
2019-01-29 23:00:00 4.3 12 Oeste 41 Oeste 0.2 -- -- 84
2019-01-29 22:00:00 5 10 Sudoeste 39 Norte 0.2 -- -- 82
2019-01-29 21:00:00 5 7 Noroeste 33 Noroeste 0.4 -- -- 85
2019-01-29 20:00:00 5.3 7 Noroeste 44 Noroeste 0.6 -- -- 87
2019-01-29 19:00:00 5.7 8 Noroeste 29 Noroeste 1 -- -- 86
2019-01-29 18:00:00 6.2 10 Norte 44 Norte 0.8 -- -- 89
2019-01-29 17:00:00 6.7 7 Norte 42 Norte 1.6 -- -- 87
2019-01-29 16:00:00 7.2 9 Sudoeste 35 Sudoeste 1 -- -- 88
2019-01-29 15:00:00 7 10 Sudoeste 38 Sur 1.4 -- -- 89
2019-01-29 14:00:00 6.7 4 Sudoeste 16 Sudoeste 0.8 -- -- 87
2019-01-29 13:00:00 6.7 3 Sudoeste 16 Noroeste 0 -- -- 88
2019-01-29 12:00:00 6.4 6 Sudoeste 17 Sudoeste 0 -- -- 86
2019-01-29 11:00:00 5.2 0 Calma 9 Oeste 0.4 -- -- 96
2019-01-29 10:00:00 4.6 5 Sudoeste 12 Sudoeste 0 -- -- 100
2019-01-29 09:00:00 4.5 0 Calma 5 Noroeste 0 -- -- 100
2019-01-29 08:00:00 4.8 3 Sudoeste 10 Sudoeste 0.2 -- -- 99
2019-01-29 07:00:00 4.6 0 Calma 9 Oeste 0.4 -- -- 100
2019-01-29 06:00:00 4.5 2 Este 12 Noroeste 0.6 -- -- 99
2019-01-29 05:00:00 4.7 3 Norte 16 Noroeste 0.6 -- -- 96
2019-01-29 04:00:00 4.7 5 Noroeste 15 Oeste 1.2 -- -- 96
2019-01-29 03:00:00 4.8 3 Sur 14 Noroeste 2.2 -- -- 97
2019-01-29 02:00:00 5 7 Oeste 21 Noroeste 1.4 -- -- 98
2019-01-29 01:00:00 4.5 4 Sur 12 Sur 0.8 -- -- 100
2019-01-29 00:00:00 4.5 5 Sudeste 13 Sur 2 -- -- 99
2019-01-28 23:00:00 4.4 4 Sur 24 Norte 3.8 -- -- 98
2019-01-28 22:00:00 5.1 4 Sur 22 Oeste 1.4 -- -- 95
2019-01-28 21:00:00 4.8 6 Sudoeste 36 Sudoeste 3.2 -- -- 93
2019-01-28 20:00:00 5.8 9 Oeste 29 Oeste 3 -- -- 92
2019-01-28 19:00:00 6 9 Sudoeste 38 Sudoeste 0.6 -- -- 91
2019-01-28 18:00:00 5.5 8 Sudoeste 46 Este 3.6 -- -- 96
2019-01-28 17:00:00 6 13 Sudoeste 58 Sudoeste 1.2 -- -- 90
2019-01-28 16:00:00 5.7 11 Sudoeste 45 Noroeste 2.8 -- -- 94
2019-01-28 15:00:00 6.4 10 Oeste 45 Oeste 0.6 -- -- 89
2019-01-28 14:00:00 6 13 Sudoeste 35 Sudoeste 3.6 -- -- 93
2019-01-28 13:00:00 6.3 12 Sudoeste 40 Oeste 0.4 -- -- 87
2019-01-28 12:00:00 6 12 Oeste 39 Noroeste 2.8 -- -- 90
2019-01-28 11:00:00 6.7 12 Sur 49 Nordeste 0.4 -- -- 84
2019-01-28 10:00:00 6.2 10 Sudoeste 37 Sudoeste 3.6 -- -- 94
2019-01-28 09:00:00 6.5 18 Sudoeste 42 Oeste 3.4 -- -- 92
2019-01-28 08:00:00 6.3 14 Sur 58 Noroeste 3.2 -- -- 94
2019-01-28 07:00:00 6.6 9 Sur 33 Norte 0.6 -- -- 94
2019-01-28 06:00:00 6.3 12 Noroeste 33 Norte 1.2 -- -- 95
2019-01-28 05:00:00 4.6 5 Sudeste 15 Sur 2.2 -- -- 100
2019-01-28 04:00:00 4.1 3 Sudoeste 15 Sudoeste 3.2 -- -- 100
2019-01-28 03:00:00 3.8 3 Sur 12 Sur 1.6 -- -- 99
2019-01-28 02:00:00 3.1 0 Calma 19 Norte 3.2 -- -- 97
2019-01-28 01:00:00 4 3 Noroeste 33 Noroeste 1.6 -- -- 90
2019-01-28 00:00:00 4.3 6 Sudoeste 28 Noroeste 2.4 -- -- 93
2019-01-27 23:00:00 4.4 7 Sudoeste 28 Sur 1.6 -- -- 93
2019-01-27 22:00:00 -- 6 Sur 26 Norte 0.8 -- -- --
2019-01-27 21:00:00 5 9 Oeste 32 Noroeste 0.4 -- -- 82
2019-01-27 20:00:00 4.8 10 Oeste 42 Oeste 1.4 -- -- 88
2019-01-27 19:00:00 5.1 13 Oeste 38 Oeste 0.8 -- -- 86
2019-01-27 18:00:00 4.4 11 Oeste 38 Sur 1.6 -- -- 90
2019-01-27 17:00:00 5.2 6 Sur 29 Sudoeste 0 -- -- 83
2019-01-27 16:00:00 4.2 12 Sur 45 Nordeste 1.4 -- -- 95
2019-01-27 15:00:00 4.1 9 Sudoeste 44 Noroeste 1.2 -- -- 90
2019-01-27 14:00:00 5.4 13 Sur 46 Sudeste 0.6 -- -- 80
2019-01-27 13:00:00 6.1 12 Noroeste 44 Oeste 0.6 -- -- 85
2019-01-27 12:00:00 5.3 14 Noroeste 41 Noroeste 1.4 -- -- 90
2019-01-27 11:00:00 5.3 12 Noroeste 42 Oeste 0.8 -- -- 88
2019-01-27 10:00:00 5.1 10 Oeste 39 Noroeste 2 -- -- 91
2019-01-27 09:00:00 6 14 Noroeste 34 Norte 0 -- -- 81
2019-01-27 08:00:00 5.9 10 Noroeste 38 Norte 0.2 -- -- 85
2019-01-27 07:00:00 6.4 10 Norte 36 Oeste 0 -- -- 86
2019-01-27 06:00:00 6.8 7 Noroeste 31 Norte 0.6 -- -- 92
2019-01-27 05:00:00 7.2 5 Norte 24 Noroeste 0.2 -- -- 98
2019-01-27 04:00:00 4.5 2 Sur 12 Norte 0 -- -- 100
2019-01-27 03:00:00 3.2 0 Calma 5 Noroeste 0 -- -- 100
2019-01-27 02:00:00 4 0 Calma 4 Sudoeste 0 -- -- 100
2019-01-27 01:00:00 3.7 0 Calma 4 Nordeste 0 -- -- 100
2019-01-27 00:00:00 4.1 0 Calma 2 Noroeste 0 -- -- 100
2019-01-26 23:00:00 3.5 0 Calma 2 Noroeste 0 -- -- 100
2019-01-26 22:00:00 3.9 0 Calma 2 Sur 0 -- -- 100
2019-01-26 21:00:00 4.4 0 Calma 3 Noroeste 0 -- -- 98
2019-01-26 20:00:00 5.5 0 Calma 2 Sur 0 -- -- 96
2019-01-26 19:00:00 6.7 0 Calma 4 Noroeste 0 -- -- 93
2019-01-26 18:00:00 8.9 0 Calma 3 Noroeste 0 -- -- 87
2019-01-26 17:00:00 11.6 0 Calma 7 Este 0 -- -- 80
2019-01-26 16:00:00 11.5 4 Este 14 Oeste 0 -- -- 76
2019-01-26 15:00:00 11.5 3 Nordeste 7 Oeste 0 -- -- 77
2019-01-26 14:00:00 10.4 3 Sudoeste 10 Sudoeste 0 -- -- 77
2019-01-26 13:00:00 10 6 Sudoeste 11 Sudoeste 0 -- -- 81
2019-01-26 12:00:00 7.9 2 Sudoeste 4 Sudoeste 0 -- -- 100
2019-01-26 11:00:00 7.2 0 Calma 4 Nordeste 0 -- -- 100
2019-01-26 10:00:00 6.6 0 Calma 3 Norte 0 -- -- 100
2019-01-26 09:00:00 6.3 0 Calma 2 Nordeste 0 -- -- 100
2019-01-26 08:00:00 6.4 0 Calma 4 Sudeste 0 -- -- 100
2019-01-26 07:00:00 6.5 0 Calma 5 Nordeste 0.2 -- -- 100
2019-01-26 06:00:00 6.6 0 Calma 3 Norte 0 -- -- 100
2019-01-26 05:00:00 6.9 0 Calma 6 Sudoeste 0.2 -- -- 100
2019-01-26 04:00:00 7 0 Calma 9 Este 0 -- -- 100
2019-01-26 03:00:00 7 2 Sur 11 Sudoeste 0.6 -- -- 100
2019-01-26 02:00:00 7.2 3 Sur 12 Norte 0.8 -- -- 100
2019-01-26 01:00:00 7.4 0 Calma 9 Sudoeste 2.4 -- -- 100
2019-01-26 00:00:00 7.3 0 Calma 13 Sudeste 1.2 -- -- 100
2019-01-25 23:00:00 7.2 2 Sur 12 Sudoeste 1.4 -- -- 100
2019-01-25 22:00:00 7.4 5 Este 15 Oeste 0.8 -- -- 100
2019-01-25 21:00:00 7.6 4 Este 15 Sudeste 1.2 -- -- 100
2019-01-25 20:00:00 7.4 4 Sur 11 Noroeste 1.8 -- -- 100
2019-01-25 19:00:00 7.3 5 Sudeste 14 Sudoeste 1.8 -- -- 100
2019-01-25 18:00:00 7.3 7 Sur 17 Este 2.6 -- -- 100
2019-01-25 17:00:00 7.3 4 Sur 19 Sur 1.4 -- -- 100
2019-01-25 16:00:00 7.5 5 Sur 28 Norte 2.2 -- -- 100
2019-01-25 15:00:00 7.8 5 Sudoeste 19 Sur 2.8 -- -- 100
2019-01-25 14:00:00 7.9 7 Sur 21 Oeste 1.8 -- -- 100
2019-01-25 13:00:00 8 6 Sur 17 Nordeste 2.8 -- -- 100
2019-01-25 12:00:00 7.8 6 Sur 20 Noroeste 1 -- -- 100
2019-01-25 11:00:00 7.8 6 Oeste 31 Oeste 2.2 -- -- 100
2019-01-25 10:00:00 7.7 6 Sudoeste 20 Sur 3.8 -- -- 100
2019-01-25 09:00:00 7.5 5 Sur 16 Sudoeste 3.4 -- -- 100
2019-01-25 08:00:00 7.6 6 Sudeste 22 Este 3.6 -- -- 100
2019-01-25 07:00:00 7.3 5 Sur 22 Este 3.8 -- -- 100
2019-01-25 06:00:00 7.4 8 Sur 29 Sur 3.2 -- -- 100
2019-01-25 05:00:00 7.2 6 Sur 19 Sur 5 -- -- 100
2019-01-25 04:00:00 7 9 Sudeste 25 Nordeste 3.6 -- -- 100
2019-01-25 03:00:00 3.7 0 Calma 8 Sudeste 1.8 -- -- 100
2019-01-25 02:00:00 2.7 0 Calma 2 Nordeste 1 -- -- 100
2019-01-25 01:00:00 2.6 0 Calma 0 Calma 0.8 -- -- 100
2019-01-25 00:00:00 2.5 0 Calma -- -- 0.8 -- -- 100
2019-01-24 23:00:00 2.4 0 Calma 3 Nordeste 1.2 -- -- 100
2019-01-24 22:00:00 2.3 0 Calma 2 Este 1 -- -- 100
2019-01-24 21:00:00 2.1 0 Calma -- -- 0.8 -- -- 100
2019-01-24 20:00:00 2.1 0 Calma 2 Este 0.6 -- -- 100
2019-01-24 19:00:00 2.1 0 Calma 2 Este 0.2 -- -- 100
2019-01-24 18:00:00 2.1 0 Calma 3 Este 0.2 -- -- 100
2019-01-24 17:00:00 2 0 Calma 2 Este 0.4 -- -- 100
2019-01-24 16:00:00 1.7 0 Calma 4 Este 0.4 -- -- 100
2019-01-24 15:00:00 1.8 0 Calma 3 Este 1 -- -- 100
2019-01-24 14:00:00 1.7 0 Calma 2 Este 0.6 -- -- 100
2019-01-24 13:00:00 1.5 0 Calma 2 Este 0.4 -- -- 100
2019-01-24 12:00:00 1.3 0 Calma 2 Este 0.2 -- -- 100
2019-01-24 11:00:00 1.1 0 Calma 2 Este 1 -- -- 100
2019-01-24 10:00:00 1.8 0 Calma 5 Este 1.4 -- -- 100
2019-01-24 09:00:00 1.9 2 Este 10 Este 1.2 -- -- 100
2019-01-24 08:00:00 1.8 3 Este 10 Este 1.4 -- -- 100
2019-01-24 07:00:00 1.9 2 Sudeste 18 Este 3 -- -- 100
2019-01-24 06:00:00 2.8 4 Sudeste 15 Norte 3 -- -- 100
2019-01-24 05:00:00 2.8 5 Sudeste 20 Sudeste 3 -- -- 100
2019-01-24 04:00:00 3 6 Este 20 Sudeste 3.8 -- -- 100
2019-01-24 03:00:00 3.2 5 Sur 25 Oeste 3.2 -- -- 100
2019-01-24 02:00:00 2.9 4 Este 38 Norte 4.8 -- -- 100
2019-01-24 01:00:00 3.6 6 Este 40 Noroeste 3.8 -- -- 99
2019-01-24 00:00:00 3.6 8 Este 38 Nordeste 3.6 -- -- 99
2019-01-23 23:00:00 4.1 9 Sudeste 38 Oeste 4.2 -- -- 99
2019-01-23 22:00:00 5 7 Sudeste 33 Noroeste 2.6 -- -- 98
2019-01-23 21:00:00 4.9 10 Sur 32 Nordeste 8.2 -- -- 99
2019-01-23 20:00:00 5 9 Sudeste 41 Noroeste 4 -- -- 95
2019-01-23 19:00:00 5.2 11 Sudeste 54 Noroeste 1.2 -- -- 97
2019-01-23 18:00:00 5.1 10 Sur 42 Sudeste 3.2 -- -- 97
2019-01-23 17:00:00 5.6 9 Sudoeste 33 Oeste 3.8 -- -- 94
2019-01-23 16:00:00 5.5 10 Sudoeste 31 Oeste 3.8 -- -- 96
2019-01-23 15:00:00 5.4 6 Sur 34 Nordeste 2.4 -- -- 98
2019-01-23 14:00:00 5.4 13 Este 33 Este 3.6 -- -- 98
2019-01-23 13:00:00 5.5 9 Sudeste 40 Noroeste 6.6 -- -- 98
2019-01-23 12:00:00 6.1 12 Sur 31 Sudeste 7 -- -- 97
2019-01-23 11:00:00 6.3 7 Sudeste 37 Sudeste 3 -- -- 95
2019-01-23 10:00:00 6.7 14 Sudoeste 32 Oeste 4 -- -- 94
2019-01-23 09:00:00 7.2 13 Sur 45 Sudoeste 4.2 -- -- 96
2019-01-23 08:00:00 8.1 16 Sudoeste 61 Noroeste 2.2 -- -- 91
2019-01-23 07:00:00 6.4 10 Oeste 37 Noroeste 3.6 -- -- 97
2019-01-23 06:00:00 5 8 Sudoeste 20 Sudoeste 2.6 -- -- 97
2019-01-23 05:00:00 4.4 4 Sudoeste 13 Sudoeste 3.4 -- -- 99
2019-01-23 04:00:00 3.9 7 Sudoeste 28 Sudoeste 3.4 -- -- 96
2019-01-23 03:00:00 4.1 7 Sudoeste 17 Oeste 1.4 -- -- 97
2019-01-23 02:00:00 4.1 12 Sudoeste 26 Oeste 2.2 -- -- 97
2019-01-23 01:00:00 3.7 10 Sudoeste 21 Sur 1.8 -- -- 99
2019-01-23 00:00:00 2.4 7 Sudoeste 21 Sudoeste 4.8 -- -- 99
2019-01-22 23:00:00 1.8 6 Sudoeste 22 Sudoeste 2.4 -- -- 98
2019-01-22 22:00:00 1.7 2 Sudoeste 13 Sudoeste 2.4 -- -- 98
2019-01-22 21:00:00 2.5 2 Sur 10 Sudoeste 2.8 -- -- 98
2019-01-22 20:00:00 2.9 2 Sudoeste 5 Sudoeste 2.8 -- -- 100
2019-01-22 19:00:00 3.1 0 Calma 9 Sur 3 -- -- 99
2019-01-22 18:00:00 3.5 3 Oeste 19 Noroeste 2.4 -- -- 96
2019-01-22 17:00:00 3.2 4 Oeste 17 Oeste 1.2 -- -- 99
2019-01-22 16:00:00 2.5 6 Sudoeste 18 Noroeste 3.6 -- -- 97
2019-01-22 15:00:00 2.1 3 Sudoeste 14 Oeste 5.2 -- -- 98
2019-01-22 14:00:00 3.1 8 Oeste 17 Sudoeste 3.2 -- -- 96
2019-01-22 13:00:00 3.3 7 Sudoeste 27 Sudoeste 3.2 -- -- 95
2019-01-22 12:00:00 4.1 13 Sudoeste 31 Sudoeste 1.6 -- -- 93
2019-01-22 11:00:00 4 5 Oeste 16 Oeste 1 -- -- 96
2019-01-22 10:00:00 3.3 2 Sudoeste 18 Noroeste 1.6 -- -- 99
2019-01-22 09:00:00 2.6 3 Sudoeste 8 Sur 0.6 -- -- 100
2019-01-22 08:00:00 1.8 0 Calma 3 Noroeste 0.2 -- -- 100
2019-01-22 07:00:00 1.3 0 Calma 2 Noroeste 0 -- -- 100
2019-01-22 06:00:00 1.1 0 Calma 3 Noroeste 0 -- -- 100
2019-01-22 05:00:00 0.7 0 Calma 2 Noroeste 0.2 -- -- 100
2019-01-22 04:00:00 0.6 0 Calma 2 Noroeste 0 -- -- 100
2019-01-22 03:00:00 1.3 0 Calma 3 Norte 0 -- -- 100
2019-01-22 02:00:00 1.5 0 Calma 4 Noroeste 0.2 -- -- 100
2019-01-22 01:00:00 1.7 0 Calma 4 Norte 1 -- -- 100
2019-01-22 00:00:00 2.1 0 Calma 6 Norte 1.2 -- -- 99
2019-01-21 23:00:00 2.8 0 Calma 12 Norte 1.2 -- -- 94
2019-01-21 22:00:00 2.9 0 Calma 6 Oeste 0.2 -- -- 96
2019-01-21 21:00:00 3.1 2 Sudoeste 8 Sudeste 0 -- -- 94
2019-01-21 20:00:00 3.2 0 Calma 8 Sur 0 -- -- 92
2019-01-21 19:00:00 3.2 0 Calma 12 Sudoeste 0 -- -- 92
2019-01-21 18:00:00 3.7 5 Sur 19 Sur 0 -- -- 86
2019-01-21 17:00:00 4.4 5 Sur 17 Sudeste 0 -- -- 88
2019-01-21 16:00:00 4.1 4 Sur 20 Sudoeste 0 -- -- 94
2019-01-21 15:00:00 3.6 5 Sur 10 Sudeste 0.4 -- -- 100
2019-01-21 14:00:00 3.1 0 Calma 13 Oeste 1.6 -- -- 99
2019-01-21 13:00:00 3.6 3 Sur 10 Oeste 1.4 -- -- 99
2019-01-21 12:00:00 4 4 Este 15 Sur 0.6 -- -- 98
2019-01-21 11:00:00 4.1 4 Este 20 Este 0.4 -- -- 98
2019-01-21 10:00:00 4.1 3 Sudoeste 16 Sudeste 0.2 -- -- 99
2019-01-21 09:00:00 3.6 4 Sudeste 9 Este 1.2 -- -- 100
2019-01-21 08:00:00 2.7 2 Sudeste 6 Sur 1 -- -- 100
2019-01-21 07:00:00 2.3 0 Calma 7 Sur 1.2 -- -- 100
2019-01-21 06:00:00 2.6 3 Sur 9 Este 2.2 -- -- 100
2019-01-21 05:00:00 3.3 0 Calma 6 Sudoeste 0.8 -- -- 100
2019-01-21 04:00:00 3.4 2 Este 14 Sudoeste 2.6 -- -- 99
2019-01-21 03:00:00 4.5 3 Este 10 Nordeste 0.6 -- -- 100
2019-01-21 02:00:00 3.9 2 Sur 8 Sur 0 -- -- 100
2019-01-21 01:00:00 3.8 3 Sudoeste 11 Sudoeste 2.6 -- -- 99
2019-01-21 00:00:00 4.1 2 Sudoeste 12 Oeste 3 -- -- 99
2019-01-20 23:00:00 4.3 0 Calma 17 Este 3 -- -- 100
2019-01-20 22:00:00 4.9 4 Este 15 Norte 2.2 -- -- 99
2019-01-20 21:00:00 5.2 4 Este 24 Este 0.2 -- -- 97
2019-01-20 20:00:00 5.2 2 Sudoeste 10 Nordeste 1.8 -- -- 98
2019-01-20 19:00:00 5.3 3 Sudeste 14 Nordeste 1 -- -- 98
2019-01-20 18:00:00 5.6 3 Sur 13 Este 0.4 -- -- 96
2019-01-20 17:00:00 6.1 4 Sudoeste 15 Sudeste 0.4 -- -- 95
2019-01-20 16:00:00 6.1 3 Sur 12 Sur 1 -- -- 97
2019-01-20 15:00:00 6.9 5 Sur 15 Sudoeste 0.2 -- -- 96
2019-01-20 14:00:00 5.7 6 Sur 17 Noroeste 1.4 -- -- 96
2019-01-20 13:00:00 5.6 5 Sudeste 19 Oeste 1.6 -- -- 95
2019-01-20 12:00:00 5.5 2 Sudeste 18 Nordeste 1.4 -- -- 100
2019-01-20 11:00:00 5.3 6 Sudeste 15 Este 2 -- -- 100
2019-01-20 10:00:00 5.1 3 Este 12 Sudeste 0.6 -- -- 100
2019-01-20 09:00:00 4.3 2 Oeste 6 Noroeste 1.4 -- -- 100
2019-01-20 08:00:00 3.9 0 Calma 4 Noroeste 3 -- -- 100
2019-01-20 07:00:00 3.9 0 Calma 2 Noroeste 0 -- -- 100
2019-01-20 06:00:00 3.8 0 Calma 0 Calma 0 -- -- 100
2019-01-20 05:00:00 3.8 0 Calma -- -- 0 -- -- 100
2019-01-20 04:00:00 3.9 0 Calma 4 Noroeste 0.2 -- -- 99
2019-01-20 03:00:00 4 0 Calma 5 Noroeste 0.4 -- -- 96
2019-01-20 02:00:00 4.3 0 Calma 18 Sur 0 -- -- 93
2019-01-20 01:00:00 4.9 4 Sur 24 Sur 0.2 -- -- 89
2019-01-20 00:00:00 5 3 Sur 20 Sur 0 -- -- 91
2019-01-19 23:00:00 5.4 5 Sudoeste 28 Sur 0 -- -- 87
2019-01-19 22:00:00 5.6 6 Sur 19 Sur 0 -- -- 87
2019-01-19 21:00:00 6 4 Sur 23 Sudeste 0 -- -- 84
2019-01-19 20:00:00 6.3 10 Sur 30 Sudoeste 0 -- -- 79
2019-01-19 19:00:00 6.4 8 Sur 24 Sudeste 0 -- -- 76
2019-01-19 18:00:00 6.7 12 Sur 28 Sudoeste 0 -- -- 74
2019-01-19 17:00:00 6.6 14 Sur 33 Sur 0 -- -- 76
2019-01-19 16:00:00 6.6 14 Sur 31 Sudoeste 0 -- -- 78
2019-01-19 15:00:00 7 12 Sur 32 Sudoeste 0 -- -- 78
2019-01-19 14:00:00 7.1 11 Sudoeste 25 Sudoeste 0 -- -- 76
2019-01-19 13:00:00 7.4 9 Sudoeste 21 Sudoeste 0 -- -- 77
2019-01-19 12:00:00 7.1 6 Sudoeste 17 Sur 0 -- -- 80
2019-01-19 11:00:00 5.8 3 Sudoeste 8 Sudoeste 0 -- -- 91
2019-01-19 10:00:00 3.2 0 Calma 3 Noroeste 0 -- -- 100
2019-01-19 09:00:00 2 0 Calma 3 Noroeste 0 -- -- 100
2019-01-19 08:00:00 2 0 Calma 3 Sudoeste 0 -- -- 100
2019-01-19 07:00:00 2.2 0 Calma 3 Sudoeste 0.2 -- -- 100
2019-01-19 06:00:00 3 0 Calma 2 Sudoeste 0 -- -- 100
2019-01-19 05:00:00 3.3 0 Calma 8 Noroeste 0 -- -- 100
2019-01-19 04:00:00 3.4 0 Calma 8 Noroeste 0 -- -- 100
2019-01-19 03:00:00 3.2 0 Calma 4 Sur 0.2 -- -- 100
2019-01-19 02:00:00 3.2 0 Calma 4 Sudoeste 1.2 -- -- 100
2019-01-19 01:00:00 3.1 0 Calma 6 Sudoeste 0.8 -- -- 98
2019-01-19 00:00:00 2.6 0 Calma 3 Norte 0 -- -- 97